Weather in Zhutovo 2-ye

Russia / Volgograd Oblast     47°48′10″N   43°51′49″E
temp.,
°C
wind,
m/s
gust,
m/s
humid.,
%
clouds,
%
prec.,
mm/h
press.,
hPa
HPBL,
m
27 november, sat
sat2700:00−1se512925 0.0 1024208
03:00−2se410915 0.0 1023162
06:00−3se410895 0.0 1023152
09:00−1se613825 0.0 1022280
12:00+2se6138680 0.0 1020432
15:00+3se61391100 0.0 1019418
18:00+3se71492100 0.0 1019338
21:00+4sse91694100 0.0 1017373
28 november, sun
sun2800:00+4sse81594100 0.0 1016341
03:00+4sse71495100 0.1 1016291
06:00+4s6129574 0.1 1015224
09:00+5s61292100 0.4 1016245
12:00+7s61185100 0.1 1015256
15:00+8s499199 0.2 1016214
18:00+8sse4993100 0.1 1016158
21:00+8s4893100 0.1 1017193
29 november, mon
mon2900:00+7s41187100 0.0 1017272
03:00+6sse41093100 0.0 1017247
06:00+6sse6129699 0.0 1016280
09:00+7sse6129474 0.0 1017363
12:00+10sse81276100 0.0 1015501
15:00+10sse81475100 0.0 1013458
18:00+10sse81580100 0.2 1012458
21:00+10s71772100 0.2 1010476
30 november, tue
tue3000:00+10sse91775100 0.1 1006350
03:00+9s81779100 0.1 1005461
06:00+9s71279100 0.1 1003306
09:00+11ssw91790100 1.6 1002727
12:00+13sw101881100 1.1 10031180
15:00+12wsw7127811 1.1 1001828
18:00+10sw5108824 0.1 1002346
21:00+8sw4692100 0.1 1001114
1 december, wed
wed100:00+8ssw3392100 0.0 99837
03:00+7nw2398100 4.3 996122
06:00+7nnw6898100 13.4 994575
09:00+4nw81196100 19.4 999589
12:00+4w10146371 0.1 10031066
15:00+4w914615 0.1 10051067
18:00+2w814645 0.0 1007749
21:00+1wsw712725 0.0 1009505